Location: Middlebury
(44.0153°N, 73.1678°W)
Time: 12:06:36
(UTC-04:00)

QB50P2 - Pass Details

Date: 27 June 2024
Orbit: 561 x 578 km, 98.0° (Epoch: 21 July)

Event Time Altitude Azimuth Distance (km) Brightness Sun altitude
Rises 04:31:42 0° 1° (N) 2,765 ? -6.5°
Reaches altitude 10° 04:34:05 10° 349° (NNW) 1,863 ? -6.2°
Maximum altitude 04:37:26 26° 293° (WNW) 1,142 ? -5.8°
Drops below altitude 10° 04:40:44 10° 236° (WSW) 1,851 ? -5.3°
Enters shadow 04:41:33 - 231° (SW) 2,142 ? -5.2°
